MST,Max TemperatureF,Mean TemperatureF,Min TemperatureF,Max Dew PointF,MeanDew PointF,Min DewpointF,Max Humidity, Mean Humidity, Min Humidity, Max Sea Level PressureIn, Mean Sea Level PressureIn, Min Sea Level PressureIn, Max VisibilityMiles, Mean VisibilityMiles, Min VisibilityMiles, Max Wind SpeedMPH, Mean Wind SpeedMPH, Max Gust SpeedMPH,PrecipitationIn, CloudCover, Events, WindDirDegrees
2012-11-1,78,58,39,20,16,11,33,21,10,30.18,30.11,30.04,10,10,10,7,3,,0.00,0,,169
2012-11-2,77,60,42,21,17,12,32,20,12,30.10,30.05,30.00,10,10,7,13,3,,0.00,0,,234
2012-11-3,75,62,50,32,27,22,48,30,19,30.17,30.12,30.05,10,10,10,10,6,,0.00,0,,292
2012-11-4,75,59,43,33,28,21,59,33,16,30.27,30.22,30.17,10,10,10,9,3,,0.00,0,,238
2012-11-5,76,60,44,24,19,14,38,23,12,30.29,30.23,30.18,10,10,10,9,5,,0.00,0,,3
2012-11-6,77,58,39,25,19,14,36,23,12,30.29,30.22,30.18,10,10,10,8,3,,0.00,0,,88
2012-11-7,80,59,38,23,20,15,39,22,12,30.25,30.16,30.09,10,10,10,14,3,24,0.00,0,,227
2012-11-8,79,63,47,30,24,18,34,24,15,30.11,30.05,29.98,10,10,10,18,6,24,0.00,0,,222
2012-11-9,72,59,46,52,40,32,70,50,30,30.08,29.99,29.91,10,10,7,24,8,44,0.01,2,Rain-Thunderstorm,243
2012-11-10,68,56,44,43,34,18,59,43,30,29.98,29.87,29.83,10,10,5,30,17,54,0.00,2,,247
2012-11-11,53,44,35,22,8,-5,49,26,9,30.36,30.17,29.98,10,10,10,24,11,29,0.00,2,,312
2012-11-12,52,40,28,10,4,-4,42,24,13,30.47,30.36,30.29,10,10,10,13,6,,0.00,0,,10
2012-11-13,60,46,32,8,2,-4,23,17,12,30.32,30.26,30.20,10,10,3,10,4,,0.00,0,,358
2012-11-14,64,44,24,16,7,-3,31,22,12,30.35,30.26,30.19,10,10,10,8,3,,0.00,0,,79
2012-11-15,66,50,34,17,13,10,39,23,14,30.28,30.23,30.19,10,10,10,8,4,,0.00,1,,1
2012-11-16,67,54,42,26,17,10,37,22,15,30.31,30.25,30.20,10,10,10,12,5,17,0.00,1,,139
2012-11-17,65,52,39,35,29,22,51,39,29,30.28,30.20,30.16,10,10,10,9,2,,0.00,2,,155
2012-11-18,63,54,44,50,43,32,90,64,42,30.24,30.19,30.14,10,10,10,14,6,20,0.01,4,Rain,256
2012-11-19,67,53,39,45,37,30,97,60,29,30.32,30.27,30.24,10,10,10,8,3,,0.00,0,,345
2012-11-20,68,52,35,32,30,26,76,42,23,30.33,30.26,30.21,10,10,10,8,3,,0.00,0,,4
2012-11-21,72,60,48,46,35,27,72,43,29,30.25,30.18,30.12,10,10,10,10,2,18,0.00,2,Thunderstorm,150
2012-11-22,74,56,38,46,37,22,93,53,21,30.25,30.17,30.12,10,10,10,10,3,9,0.00,0,,276
2012-11-23,62,50,38,31,23,16,60,35,19,30.47,30.39,30.25,10,10,10,13,6,17,0.00,0,,123
2012-11-24,63,46,30,25,20,12,52,35,23,30.41,30.28,30.13,10,10,10,7,4,,0.00,0,,181
2012-11-25,73,54,34,32,26,15,65,39,18,30.13,30.06,29.96,10,10,10,21,5,24,0.00,0,,264
2012-11-26,71,54,38,24,17,12,40,25,11,30.27,30.13,30.03,10,10,10,13,5,20,0.00,1,,282
2012-11-27,62,46,31,27,23,18,58,40,25,30.41,30.33,30.27,10,10,10,12,6,,0.00,0,,169
2012-11-28,67,50,33,36,28,20,57,43,30,30.36,30.28,30.20,10,10,10,10,4,,0.00,0,,280
2012-11-29,70,54,39,36,30,20,75,42,20,30.25,30.20,30.14,10,10,7,15,7,22,0.00,0,,272
2012-11-30,70,52,35,30,24,20,54,35,19,30.25,30.18,30.12,10,10,10,13,6,,0.00,0,,252